Change the Weather History Date:

Saturday, June 29, 2013

  Actual Average (KAQP) Record (KAQP)
Temperature  
Mean Temperature 70 °F -  
Max Temperature 80 °F 78 °F 93 °F (2002)
Min Temperature 60 °F 57 °F 46 °F (2007)
Cooling Degree Days 5    
Growing Degree Days 20 (Base 50)    
Moisture  
Dew Point 54 °F    
Average Humidity 59    
Maximum Humidity 82    
Minimum Humidity 32    
Precipitation  
Precipitation 0.00 in - - ()
Sea Level Pressure  
Sea Level Pressure 29.95 in    
Wind  
Wind Speed 13 mph (North)    
Max Wind Speed 18 mph    
Max Gust Speed 25 mph    
Visibility 10 miles    
Events      
Averages and records for this station are not official NWS values.
T = Trace of Precipitation, MM = Missing Value Source: NWS Daily Summary

Daily Weather History Graph

Daily Weather History Graph

Search for Another Location

Airport or City:

Trip Planner

Search our weather history database for the weather conditions in past years. The results will help you decide how hot, cold, wet, or windy it might be!

Date:

Astronomy

Jun. 29, 2013 Rise Set
Actual Time 5:41 AM CDT 9:15 PM CDT
Civil Twilight 5:03 AM CDT 9:52 PM CDT
Nautical Twilight 4:14 AM CDT 10:41 PM CDT
Astronomical Twilight 3:09 AM CDT 11:46 PM CDT
Moon 12:26 AM CDT 1:14 PM CDT
Length of Visible Light 16h 48m
Length of Day
15h 34m
Waning Gibbous, 55% of the Moon is Illuminated
Jun 29
Waning Gibbous
Jun 29
Last Quarter
Jul 8
New
Jul 15
First Quarter
Jul 22
Full

Hourly Weather History & Observations

Time (CDT) Temp. Dew Point Humidity Pressure Visibility Wind Dir Wind Speed Gust Speed Precip Events Conditions
12:14 AM 68.0 °F 57.2 °F 68% 29.90 in 10.0 mi NNW 12.7 mph - N/A   Clear
12:33 AM 69.8 °F 55.4 °F 60% 29.90 in 10.0 mi NNW 13.8 mph - N/A   Clear
12:54 AM 68.0 °F 55.4 °F 64% 29.89 in 10.0 mi NNW 9.2 mph - N/A   Clear
1:14 AM 68.0 °F 55.4 °F 64% 29.89 in 10.0 mi NNW 12.7 mph 19.6 mph N/A   Clear
1:33 AM 66.2 °F 55.4 °F 68% 29.89 in 10.0 mi NNW 12.7 mph 18.4 mph N/A   Clear
1:54 AM 66.2 °F 55.4 °F 68% 29.88 in 10.0 mi NW 12.7 mph - N/A   Clear
2:13 AM 66.2 °F 55.4 °F 68% 29.88 in 10.0 mi NW 12.7 mph - N/A   Clear
2:34 AM 66.2 °F 55.4 °F 68% 29.88 in 10.0 mi NNW 11.5 mph 18.4 mph N/A   Clear
2:54 AM 66.2 °F 55.4 °F 68% 29.89 in 10.0 mi NNW 12.7 mph - N/A   Clear
3:13 AM 64.4 °F 55.4 °F 73% 29.89 in 10.0 mi NNW 12.7 mph 19.6 mph N/A   Clear
3:34 AM 64.4 °F 55.4 °F 73% 29.89 in 10.0 mi NNW 11.5 mph - N/A   Clear
3:54 AM 64.4 °F 55.4 °F 73% 29.89 in 10.0 mi NNW 12.7 mph - N/A   Clear
4:13 AM 64.4 °F 55.4 °F 73% 29.89 in 10.0 mi NNW 12.7 mph - N/A   Clear
4:34 AM 64.4 °F 55.4 °F 73% 29.90 in 10.0 mi NNW 15.0 mph - N/A   Clear
4:53 AM 64.4 °F 55.4 °F 73% 29.89 in 10.0 mi NNW 12.7 mph - N/A   Clear
5:13 AM 64.4 °F 57.2 °F 77% 29.90 in 10.0 mi NW 11.5 mph 18.4 mph N/A   Clear
5:34 AM 62.6 °F 57.2 °F 82% 29.90 in 10.0 mi NW 13.8 mph 18.4 mph N/A   Clear
5:54 AM 62.6 °F 57.2 °F 82% 29.91 in 10.0 mi NNW 16.1 mph - N/A   Clear
6:13 AM 62.6 °F 57.2 °F 82% 29.92 in 10.0 mi NNW 13.8 mph 20.7 mph N/A   Clear
6:34 AM 62.6 °F 57.2 °F 82% 29.93 in 10.0 mi NNW 13.8 mph - N/A   Scattered Clouds
6:54 AM 62.6 °F 57.2 °F 82% 29.93 in 10.0 mi NNW 15.0 mph 20.7 mph N/A   Mostly Cloudy
7:13 AM 64.4 °F 57.2 °F 77% 29.94 in 10.0 mi NNW 18.4 mph 21.9 mph N/A   Mostly Cloudy
7:34 AM 64.4 °F 57.2 °F 77% 29.94 in 10.0 mi NNW 16.1 mph - N/A   Clear
7:54 AM 64.4 °F 57.2 °F 77% 29.95 in 10.0 mi North 16.1 mph - N/A   Clear
8:13 AM 64.4 °F 57.2 °F 77% 29.95 in 10.0 mi North 15.0 mph - N/A   Scattered Clouds
8:34 AM 64.4 °F 57.2 °F 77% 29.96 in 10.0 mi NNW 15.0 mph 19.6 mph N/A   Clear
8:54 AM 66.2 °F 57.2 °F 73% 29.96 in 10.0 mi North 12.7 mph - N/A   Scattered Clouds
9:13 AM 66.2 °F 57.2 °F 73% 29.96 in 10.0 mi NNW 15.0 mph - N/A   Scattered Clouds
9:34 AM 66.2 °F 57.2 °F 73% 29.97 in 10.0 mi NNW 16.1 mph - N/A   Mostly Cloudy
9:54 AM 68.0 °F 57.2 °F 68% 29.97 in 10.0 mi NNW 16.1 mph - N/A   Scattered Clouds
10:13 AM 68.0 °F 59.0 °F 73% 29.97 in 10.0 mi NNW 15.0 mph 19.6 mph N/A   Clear
10:34 AM 68.0 °F 57.2 °F 68% 29.97 in 10.0 mi North 13.8 mph - N/A   Scattered Clouds
10:54 AM 69.8 °F 57.2 °F 64% 29.98 in 10.0 mi North 17.3 mph - N/A   Scattered Clouds
11:13 AM 69.8 °F 57.2 °F 64% 29.97 in 10.0 mi North 13.8 mph - N/A   Clear
11:34 AM 71.6 °F 57.2 °F 60% 29.97 in 10.0 mi North 15.0 mph - N/A   Clear
11:54 AM 71.6 °F 57.2 °F 60% 29.97 in 10.0 mi North 12.7 mph - N/A   Clear
12:13 PM 71.6 °F 55.4 °F 57% 29.97 in 10.0 mi North 13.8 mph 17.3 mph N/A   Clear
12:34 PM 73.4 °F 57.2 °F 57% 29.97 in 10.0 mi NNW 12.7 mph - N/A   Clear
12:54 PM 73.4 °F 55.4 °F 53% 29.97 in 10.0 mi NNW 13.8 mph 18.4 mph N/A   Clear
1:13 PM 75.2 °F 55.4 °F 50% 29.97 in 10.0 mi North 16.1 mph 19.6 mph N/A   Clear
1:34 PM 75.2 °F 53.6 °F 47% 29.97 in 10.0 mi NNW 15.0 mph 19.6 mph N/A   Clear
1:53 PM 75.2 °F 55.4 °F 50% 29.97 in 10.0 mi North 16.1 mph 20.7 mph N/A   Clear
2:14 PM 75.2 °F 55.4 °F 50% 29.96 in 10.0 mi NNW 17.3 mph 23.0 mph N/A   Scattered Clouds
2:33 PM 77.0 °F 51.8 °F 41% 29.96 in 10.0 mi North 16.1 mph 25.3 mph N/A   Scattered Clouds
2:53 PM 78.8 °F 51.8 °F 39% 29.96 in 10.0 mi North 12.7 mph 23.0 mph N/A   Clear
3:14 PM 78.8 °F 50.0 °F 36% 29.95 in 10.0 mi North 13.8 mph 24.2 mph N/A   Scattered Clouds
3:33 PM 78.8 °F 51.8 °F 39% 29.95 in 10.0 mi NNW 13.8 mph - N/A   Scattered Clouds
3:53 PM 78.8 °F 48.2 °F 34% 29.95 in 10.0 mi North 12.7 mph 20.7 mph N/A   Scattered Clouds
4:14 PM 77.0 °F 48.2 °F 36% 29.95 in 10.0 mi NNE 16.1 mph 24.2 mph N/A   Scattered Clouds
4:33 PM 80.6 °F 48.2 °F 32% 29.95 in 10.0 mi NNE 13.8 mph 21.9 mph N/A   Mostly Cloudy
4:53 PM 78.8 °F 51.8 °F 39% 29.95 in 10.0 mi NNE 16.1 mph 20.7 mph N/A   Scattered Clouds
5:14 PM 78.8 °F 50.0 °F 36% 29.95 in 10.0 mi NNE 16.1 mph - N/A   Scattered Clouds
5:33 PM 78.8 °F 50.0 °F 36% 29.96 in 10.0 mi NNE 16.1 mph 19.6 mph N/A   Scattered Clouds
5:53 PM 75.2 °F 51.8 °F 44% 29.96 in 10.0 mi NNE 10.4 mph - N/A   Scattered Clouds
6:14 PM 78.8 °F 48.2 °F 34% 29.95 in 10.0 mi North 17.3 mph 23.0 mph N/A   Clear
6:33 PM 78.8 °F 48.2 °F 34% 29.96 in 10.0 mi North 12.7 mph - N/A   Scattered Clouds
6:53 PM 78.8 °F 48.2 °F 34% 29.96 in 10.0 mi North 11.5 mph 18.4 mph N/A   Scattered Clouds
7:14 PM 77.0 °F 48.2 °F 36% 29.97 in 10.0 mi NNE 13.8 mph - N/A   Clear
7:33 PM 77.0 °F 46.4 °F 34% 29.96 in 10.0 mi NNE 15.0 mph 18.4 mph N/A   Clear
7:54 PM 75.2 °F 48.2 °F 38% 29.97 in 10.0 mi NNE 13.8 mph 18.4 mph N/A   Clear
8:14 PM 75.2 °F 48.2 °F 38% 29.96 in 10.0 mi NNE 9.2 mph - N/A   Clear
8:33 PM 73.4 °F 50.0 °F 44% 29.96 in 10.0 mi NNE 8.1 mph - N/A   Clear
8:54 PM 69.8 °F 51.8 °F 53% 29.97 in 10.0 mi NNE 8.1 mph - N/A   Clear
9:14 PM 69.8 °F 51.8 °F 53% 29.98 in 10.0 mi ENE 8.1 mph - N/A   Clear
9:33 PM 68.0 °F 53.6 °F 60% 29.99 in 10.0 mi East 6.9 mph - N/A   Clear
9:54 PM 66.2 °F 53.6 °F 64% 29.99 in 10.0 mi ENE 4.6 mph - N/A   Scattered Clouds
10:14 PM 66.2 °F 53.6 °F 64% 30.00 in 10.0 mi ENE 6.9 mph - N/A   Scattered Clouds
10:33 PM 64.4 °F 51.8 °F 64% 30.00 in 10.0 mi ENE 5.8 mph - N/A   Clear
10:54 PM 64.4 °F 51.8 °F 64% 30.01 in 10.0 mi ENE 4.6 mph - N/A   Clear
11:14 PM 64.4 °F 51.8 °F 64% 30.01 in 10.0 mi ENE 4.6 mph - N/A   Clear
11:33 PM 60.8 °F 51.8 °F 72% 30.02 in 10.0 mi ENE 5.8 mph - N/A   Clear
11:54 PM 60.8 °F 51.8 °F 72% 30.02 in 10.0 mi NE 3.5 mph - N/A   Clear